Wind_Speed
10 11 12 12 13 15 15 16 16 15 17 19 21 21 22 22 23 23 24 26 27 28 29 30 31 32 33 33 34 34 34 35 35 36 36 37 37 38 38 38 39 40 40 40
14 15 15 15 16 17 18 18 19 19 20 22 23 24 24 25 26 26 27 28 28 29 30 31 32 32 33 34 34 34 35 35 36 36 37 37 37 38 38 39 39 39 40 40
16 17 17 17 18 20 21 21 22 23 23 25 26 26 27 27 28 29 30 30 31 32 32 33 33 33 34 35 35 35 36 36 36 37 37 37 37 38 38 38 39 39 39 39
18 19 20 21 22 23 24 25 26 26 27 27 28 28 29 30 31 31 32 33 34 34 34 35 35 35 36 36 37 37 37 37 37 37 37 38 38 38 38 38 39 39 38 39
23 23 23 23 25 26 27 27 28 29 29 29 30 30 31 33 34 34 35 36 36 36 37 37 37 37 37 37 37 37 38 38 38 38 37 38 38 38 38 38 38 38 39 39
26 27 26 26 27 28 29 30 31 31 32 32 33 33 33 35 36 37 38 38 38 38 38 38 39 38 38 38 38 38 38 38 39 39 39 39 39 39 38 39 39 39 39 39
28 29 29 30 31 32 32 33 34 34 35 35 36 36 36 37 38 39 39 40 40 40 40 39 39 39 39 39 39 39 39 39 39 40 40 39 39 39 39 39 39 39 39 40
32 33 33 34 34 35 35 36 37 37 37 38 38 39 39 40 40 41 41 41 41 41 41 41 41 40 40 40 41 41 41 41 41 41 40 40 39 39 39 39 39 39 39 39
36 35 36 37 38 38 39 39 39 40 40 41 41 41 41 41 41 41 41 41 41 41 41 41 42 42 42 42 43 43 43 42 41 41 41 40 40 40 40 40 40 40 40 40
38 38 39 40 41 41 42 42 42 42 43 43 43 43 43 43 43 43 42 42 42 42 42 42 43 43 43 43 43 43 42 41 41 41 41 41 41 40 40 40 40 40 40 40
42 42 43 42 43 44 45 45 45 45 45 45 44 44 44 44 44 44 43 43 43 43 43 43 43 43 43 43 42 41 41 40 41 41 41 41 41 41 41 41 41 41 41 41
45 45 46 46 46 46 47 47 46 46 46 46 46 46 46 45 45 45 44 44 44 44 43 43 43 43 43 43 42 41 41 40 40 41 41 41 41 41 41 41 41 41 41 40
46 47 48 48 48 48 48 47 47 47 46 46 46 46 45 45 45 45 44 44 44 44 44 43 43 42 42 42 41 41 41 41 41 41 41 41 41 41 41 41 41 41 40 40
47 48 48 48 48 48 47 47 47 46 46 46 45 45 44 44 44 44 44 44 43 43 43 42 41 41 40 41 41 41 42 41 41 41 41 40 40 40 40 40 40 40 40 40
48 49 49 48 48 47 47 46 46 45 45 45 44 44 44 44 43 43 44 43 42 42 42 41 41 40 40 41 41 42 41 41 40 40 40 40 40 39 39 40 39 39 39 39
49 49 49 48 47 46 46 45 45 44 44 44 43 43 43 43 43 43 43 42 41 41 41 41 41 41 41 41 41 40 40 40 39 39 39 39 39 38 39 39 39 39 39 39
49 48 47 46 46 45 45 45 44 44 44 43 43 43 43 43 43 42 41 41 41 41 41 41 41 41 41 41 40 39 39 39 38 38 38 38 38 38 38 38 38 38 38 38
48 47 46 46 45 44 44 44 44 44 43 43 43 43 43 43 42 41 41 41 41 41 41 41 41 40 40 40 40 39 38 38 38 38 38 38 37 37 38 37 37 36 36 36
46 45 44 43 43 44 43 43 43 43 43 43 43 44 44 44 44 43 43 43 42 42 42 41 41 40 40 40 39 39 38 38 38 37 37 37 37 37 37 36 35 35 35 35
44 44 44 44 44 44 44 44 45 45 45 46 46 45 44 44 45 44 44 43 43 44 43 42 41 41 40 39 39 39 38 38 37 37 36 36 36 36 35 34 34 34 33 33
44 44 45 45 45 45 45 46 46 47 47 47 46 46 45 45 45 45 44 44 43 43 43 42 42 41 40 40 39 38 38 37 36 36 36 35 35 34 33 33 32 32 32 32
45 46 46 46 46 46 46 46 47 47 47 47 47 47 47 46 46 46 45 44 44 43 42 41 41 40 40 39 38 37 36 35 35 34 34 33 32 32 31 31 30 30 30 30
46 47 47 47 48 48 48 48 48 48 48 48 48 47 47 47 46 46 45 44 44 43 41 40 40 39 38 37 36 35 34 34 33 33 32 31 31 30 29 29 29 29 29 29
48 49 48 49 49 49 48 48 49 48 48 48 47 47 47 46 44 44 44 43 41 40 39 38 37 37 36 35 34 33 33 32 32 31 31 30 29 29 28 27 27 27 27 28
50 50 51 51 50 49 49 49 49 48 48 47 45 45 45 44 43 42 41 40 39 38 37 36 35 34 33 33 32 32 31 31 30 30 29 28 28 27 26 26 26 26 26 27
51 51 50 50 50 49 49 49 48 47 47 45 43 42 42 42 41 40 38 37 36 35 34 33 32 31 30 30 30 29 29 28 27 27 27 27 26 26 25 25 25 26 26 26
51 50 50 49 49 48 47 46 45 44 43 42 40 40 39 39 38 36 35 34 33 32 31 30 29 28 28 27 27 27 26 25 25 25 25 25 25 25 25 24 25 25 25 25
Wind_Direction
294 292 291 292 293 293 295 294 294 292 290 289 291 294 294 293 292 290 289 289 289 288 288 288 288 288 289 289 289 290 291 291 292 293 293 293 292 292 291 290 290 290 291 292
293 292 291 291 290 291 292 293 294 292 292 291 292 293 293 291 290 290 290 290 291 290 290 291 291 291 291 291 291 292 292 293 293 294 293 293 293 292 291 291 291 291 291 292
293 293 293 291 291 292 293 293 292 293 293 292 293 293 293 291 290 289 289 290 291 291 290 291 291 292 292 292 292 293 292 292 293 293 293 292 292 292 292 292 292 292 292 293
292 291 291 293 291 291 292 293 293 293 293 294 294 293 292 292 291 290 290 290 290 290 290 291 291 292 292 292 293 293 293 292 293 293 293 292 292 292 292 292 292 292 292 293
292 292 292 292 292 292 293 293 294 294 294 294 294 293 293 292 291 291 291 291 290 290 291 291 291 292 292 292 292 292 292 292 292 293 293 293 293 293 292 291 292 292 292 293
294 294 295 294 293 293 293 294 294 293 294 294 293 292 292 292 292 292 291 291 291 291 292 291 291 291 291 291 291 291 291 291 291 292 293 293 292 292 292 292 292 292 292 293
293 294 295 295 295 295 295 296 296 296 295 294 294 294 293 291 292 292 292 292 291 291 291 291 291 290 290 290 290 290 291 291 291 292 292 293 292 292 292 292 293 293 293 294
291 294 296 295 295 295 295 295 295 295 295 295 295 295 294 293 292 292 292 292 292 291 290 290 289 289 289 289 289 290 290 291 291 291 291 292 292 292 292 293 293 294 294 294
290 293 294 294 294 294 294 295 295 295 295 295 295 295 294 294 293 292 291 291 291 291 290 289 289 289 290 290 290 290 290 290 290 290 291 292 292 292 292 293 293 293 293 294
289 291 291 292 293 293 294 294 295 295 295 294 295 294 294 294 294 293 291 290 290 290 290 290 290 289 290 290 290 290 290 290 290 290 291 292 292 292 292 292 293 293 293 294
287 288 289 291 292 292 293 293 294 294 294 294 294 293 293 293 292 292 291 290 289 289 289 290 290 289 290 290 289 289 289 289 289 290 290 290 291 291 291 291 292 292 293 293
289 289 289 290 291 291 292 293 293 293 293 293 293 293 293 292 292 291 290 289 288 288 288 289 289 289 289 289 288 289 289 289 289 290 290 290 290 291 291 291 291 292 293 293
289 289 289 290 290 291 292 292 292 292 292 292 292 292 292 292 291 291 290 289 289 288 288 289 289 289 289 289 288 289 289 289 290 289 289 290 290 290 291 291 291 292 292 292
288 288 288 289 290 290 291 291 291 291 290 290 290 290 291 291 291 291 290 290 290 290 289 289 290 290 289 289 289 289 289 289 289 290 289 290 290 290 291 291 292 292 293 293
289 289 290 290 290 290 290 289 289 289 289 289 290 290 290 291 291 291 292 292 291 291 291 290 290 290 290 290 290 290 289 289 289 290 290 290 290 291 291 292 292 293 293 294
290 290 291 291 291 290 289 288 288 287 287 288 289 289 290 291 291 292 292 292 292 292 291 291 291 291 291 291 290 290 290 289 289 289 290 290 290 291 292 292 292 293 294 294
290 290 291 290 290 289 288 287 287 287 287 287 288 288 288 290 291 293 293 292 293 293 292 292 292 292 292 291 291 290 290 289 289 290 290 290 291 292 292 292 293 293 294 295
290 290 290 290 289 288 287 287 287 287 287 287 287 287 287 289 291 292 292 292 293 293 293 293 293 292 291 291 291 290 290 290 289 290 290 291 292 292 293 293 293 294 295 295
288 288 288 288 288 287 287 286 287 286 286 286 286 287 287 289 290 291 291 292 292 293 293 293 292 292 291 290 290 290 290 289 288 288 289 290 291 293 293 293 293 294 295 296
287 287 287 288 288 288 288 288 287 287 286 286 286 287 288 289 289 290 290 291 293 293 292 292 292 290 289 290 290 289 289 288 288 287 288 289 290 292 293 292 292 293 294 296
286 287 288 288 288 287 287 288 288 287 288 287 287 288 288 289 289 289 290 291 292 292 292 291 291 290 289 288 288 288 288 288 287 286 287 288 290 291 291 291 291 293 294 296
285 286 287 287 287 287 288 288 288 288 288 288 288 288 289 289 288 288 289 290 291 292 291 291 290 289 288 287 287 287 287 286 285 286 287 288 289 290 291 291 292 293 295 296
284 286 287 287 286 286 287 287 287 288 288 288 288 288 289 290 290 289 289 289 289 290 290 290 289 288 287 286 285 285 286 286 285 285 286 287 289 289 290 291 292 293 296 297
285 286 287 288 287 287 287 287 286 286 287 288 288 288 288 289 289 289 289 289 289 289 290 289 288 288 286 285 283 283 284 285 284 285 286 287 288 288 289 290 292 294 296 298
285 286 287 287 287 287 287 287 285 285 286 287 287 287 287 288 289 288 288 288 288 289 289 288 287 286 285 284 283 283 283 283 283 284 284 285 286 287 288 290 292 294 297 299
286 286 287 287 287 287 286 286 286 285 285 285 285 286 286 287 288 288 287 287 287 288 287 287 286 285 284 283 283 283 283 283 282 283 284 284 285 287 287 289 291 294 296 298
285 285 286 287 286 286 286 286 285 285 285 285 285 285 285 286 286 286 285 285 285 286 286 285 285 284 284 283 283 282 281 280 281 282 283 284 285 286 286 287 291 294 295 297
Height
5721 5719 5718 5717 5716 5714 5712 5711 5709 5709 5706 5704 5700 5699 5696 5694 5692 5689 5687 5685 5682 5680 5677 5675 5672 5669 5667 5664 5661 5659 5656 5653 5649 5646 5642 5638 5635 5631 5628 5624 5621 5618 5615 5611
5718 5715 5714 5713 5711 5709 5707 5705 5704 5702 5701 5698 5695 5693 5690 5688 5686 5683 5681 5678 5675 5673 5670 5667 5664 5661 5658 5655 5652 5649 5646 5643 5639 5636 5632 5629 5625 5621 5618 5614 5611 5607 5604 5600
5713 5711 5709 5709 5706 5704 5702 5700 5698 5696 5695 5691 5689 5686 5683 5681 5678 5676 5673 5670 5667 5665 5662 5658 5655 5652 5649 5646 5643 5639 5636 5633 5629 5626 5622 5619 5615 5611 5607 5604 5600 5597 5593 5589
5708 5707 5704 5705 5700 5698 5696 5694 5691 5689 5687 5684 5682 5679 5676 5673 5670 5667 5665 5662 5659 5655 5652 5649 5646 5643 5640 5636 5633 5630 5626 5622 5619 5615 5612 5608 5604 5601 5597 5593 5589 5586 5582 5579
5701 5699 5698 5697 5693 5690 5688 5687 5684 5681 5679 5676 5673 5671 5668 5664 5661 5658 5655 5652 5649 5646 5642 5639 5636 5633 5630 5626 5623 5619 5616 5612 5608 5605 5601 5598 5594 5590 5586 5583 5579 5575 5572 5568
5693 5691 5690 5690 5686 5682 5681 5678 5676 5673 5670 5667 5664 5662 5661 5656 5652 5649 5645 5642 5639 5635 5632 5629 5625 5622 5619 5616 5612 5609 5605 5601 5598 5594 5591 5587 5583 5580 5576 5572 5568 5564 5561 5557
5685 5682 5681 5680 5676 5674 5673 5670 5666 5663 5660 5658 5655 5652 5650 5646 5642 5638 5634 5631 5627 5624 5621 5618 5614 5611 5608 5605 5601 5598 5594 5591 5587 5583 5580 5576 5572 5569 5565 5561 5557 5554 5550 5546
5677 5675 5675 5670 5666 5665 5662 5659 5655 5652 5650 5647 5644 5641 5638 5634 5631 5627 5623 5620 5616 5613 5610 5606 5603 5600 5597 5593 5590 5586 5583 5579 5576 5572 5568 5565 5561 5558 5554 5550 5546 5542 5538 5535
5669 5668 5664 5659 5656 5653 5650 5648 5645 5642 5639 5636 5633 5630 5626 5623 5619 5615 5611 5608 5604 5601 5598 5594 5591 5587 5585 5581 5578 5574 5571 5568 5564 5561 5557 5554 5550 5546 5542 5539 5535 5531 5527 5523
5657 5656 5652 5648 5645 5642 5639 5636 5633 5630 5627 5624 5621 5618 5614 5611 5607 5603 5599 5596 5592 5589 5586 5582 5578 5575 5572 5569 5565 5562 5559 5555 5552 5549 5545 5542 5538 5535 5531 5527 5523 5519 5516 5512
5645 5644 5640 5638 5634 5631 5627 5624 5621 5618 5615 5611 5608 5605 5601 5598 5594 5590 5587 5583 5579 5576 5573 5570 5566 5562 5559 5556 5553 5550 5546 5543 5540 5537 5533 5530 5527 5523 5519 5515 5511 5508 5504 5500
5633 5631 5627 5625 5622 5618 5615 5612 5609 5605 5602 5598 5594 5591 5588 5584 5580 5576 5573 5570 5566 5563 5560 5556 5553 5550 5546 5543 5540 5537 5534 5531 5528 5525 5521 5518 5514 5511 5507 5504 5500 5496 5492 5488
5619 5616 5613 5611 5608 5605 5601 5598 5595 5591 5588 5585 5581 5577 5574 5570 5566 5563 5559 5556 5553 5550 5546 5543 5540 5537 5534 5530 5527 5524 5522 5518 5515 5512 5509 5505 5502 5499 5495 5492 5488 5484 5480 5476
5605 5602 5599 5597 5594 5591 5587 5584 5581 5577 5574 5570 5567 5564 5560 5557 5553 5550 5546 5542 5539 5536 5533 5530 5527 5524 5521 5518 5515 5512 5509 5506 5502 5499 5496 5493 5490 5486 5483 5480 5476 5472 5468 5465
5591 5588 5585 5582 5580 5576 5573 5570 5567 5563 5560 5556 5553 5550 5546 5543 5540 5536 5533 5529 5526 5523 5520 5517 5514 5512 5508 5505 5502 5499 5496 5493 5490 5487 5484 5481 5477 5474 5471 5467 5464 5460 5457 5453
5577 5574 5570 5567 5565 5561 5558 5555 5552 5549 5546 5543 5540 5537 5533 5530 5527 5524 5520 5517 5514 5511 5508 5505 5502 5499 5496 5493 5489 5487 5484 5481 5477 5475 5472 5469 5465 5462 5459 5456 5452 5449 5445 5441
5562 5559 5556 5553 5550 5547 5544 5540 5538 5535 5532 5529 5527 5524 5520 5517 5514 5511 5508 5505 5501 5498 5495 5492 5489 5486 5483 5480 5477 5474 5471 5468 5465 5463 5460 5457 5454 5451 5448 5444 5441 5437 5434 5430
5546 5544 5541 5538 5535 5532 5529 5526 5523 5521 5518 5516 5513 5510 5507 5505 5502 5499 5496 5493 5489 5486 5483 5479 5476 5474 5470 5467 5464 5461 5459 5456 5453 5451 5448 5445 5443 5439 5436 5433 5429 5426 5422 5418
5531 5529 5526 5523 5521 5518 5515 5512 5510 5507 5504 5502 5499 5497 5494 5492 5489 5486 5483 5480 5476 5473 5471 5467 5463 5460 5457 5454 5452 5449 5447 5444 5442 5439 5437 5434 5431 5428 5425 5422 5418 5415 5411 5408
5516 5514 5512 5509 5506 5504 5501 5498 5496 5493 5491 5487 5485 5483 5481 5478 5475 5472 5469 5466 5463 5459 5457 5454 5451 5447 5445 5442 5439 5437 5434 5432 5429 5427 5425 5422 5419 5417 5414 5411 5407 5404 5401 5398
5502 5500 5497 5495 5492 5490 5487 5484 5481 5479 5476 5473 5470 5468 5466 5464 5461 5458 5455 5453 5450 5446 5443 5440 5437 5434 5432 5429 5427 5424 5422 5420 5417 5415 5413 5410 5408 5405 5402 5400 5397 5394 5391 5388
5488 5486 5483 5480 5478 5476 5473 5469 5466 5463 5461 5459 5456 5453 5451 5449 5446 5444 5441 5438 5436 5432 5429 5427 5424 5421 5419 5416 5414 5412 5410 5408 5406 5403 5401 5399 5397 5394 5392 5389 5387 5384 5381 5378
5473 5471 5468 5465 5462 5460 5458 5455 5452 5449 5446 5444 5441 5439 5436 5434 5431 5429 5427 5425 5421 5418 5416 5413 5410 5408 5406 5404 5402 5400 5398 5396 5394 5392 5390 5389 5386 5384 5382 5380 5377 5375 5372 5369
5458 5455 5453 5450 5446 5444 5442 5440 5436 5433 5431 5429 5427 5424 5421 5419 5417 5414 5411 5409 5407 5404 5402 5400 5397 5395 5393 5392 5390 5389 5387 5385 5384 5382 5380 5379 5377 5375 5373 5371 5369 5366 5363 5360
5442 5439 5437 5434 5431 5428 5426 5423 5420 5418 5416 5414 5412 5409 5406 5404 5402 5400 5398 5396 5393 5391 5389 5387 5385 5383 5381 5380 5379 5378 5376 5375 5373 5372 5370 5369 5367 5366 5364 5362 5360 5358 5355 5352
5426 5423 5420 5418 5415 5412 5409 5406 5404 5403 5401 5399 5397 5395 5392 5390 5388 5386 5384 5382 5381 5379 5377 5375 5374 5372 5371 5369 5368 5367 5366 5365 5363 5362 5361 5360 5358 5357 5355 5354 5352 5349 5347 5344
5409 5407 5404 5402 5400 5397 5394 5391 5389 5388 5386 5384 5383 5381 5379 5377 5375 5373 5372 5370 5369 5367 5366 5364 5363 5362 5361 5360 5358 5357 5356 5355 5354 5353 5352 5351 5350 5349 5347 5345 5344 5341 5339 5336